GSAT0209 (GALILEO 12) (41174 NORAD) Tracking and Keplerian Element Data

This shows tracking and keplerian element data for the satellite.

Feedback or suggestion? Click here.




ElementValue
Catalog41174
NameGSAT0209 (GALILEO 12)
Epoch Orbit1772
Epoch Day320.19032545
Epoch Year2018
RAAN177.4375
Inclination54.9272
Eccentricity0.0003515
Argument of Perigee323.2754
Mean Anonmoly36.791
Mean Motion1.70473358
Decay Rate5.8E-07
L11 41174U 15079A 18320.19032545 .00000058 00000-0 00000-0 0 9995
L22 41174 54.9272 177.4375 0003515 323.2754 36.7910 1.70473358 17723

Live tracking and technical data element details for GSAT0209 (GALILEO 12) (NORAD 41174). GSAT0209 (GALILEO 12) can be tracked NOW for your location showing map with azimuth and elevation plus other details from your city location.

Track the satellite on the map from your city or location and see movement details for azimuth, elevation, latitude, longitude, range, height, and movement on the map or in text.







IsCatalogInMostPopularTable: catalog: 41174, numindb: 116
Update: records affected: 1



GetName: 41174 GSAT0209 (GALILEO 12)

Hit Count: updated at: Mon, 19 Nov 2018 10:58:57 GMT